Location: Barcelona
(41.3830°N, 2.1830°E)
Time: 01:26:28
(UTC+02:00)

ISS - Pass Details

Date: 17 July 2019
Orbit: 409 x 418 km, 51.6° (Epoch: 23 July)

Event Time Altitude Azimuth Distance (km) Brightness Sun altitude
Rises 05:30:25 0° 304° (NW) 2,343 -0.1 -10.3°
Reaches altitude 10° 05:32:31 10° 303° (WNW) 1,477 -1.2 -10.0°
Maximum altitude 05:35:49 75° 218° (SW) 426 -3.9 -9.5°
Drops below altitude 10° 05:39:06 10° 132° (SE) 1,467 -0.9 -9.0°
Sets 05:41:11 0° 131° (SE) 2,324 0.2 -8.7°
